This demonstration page uses our WeatherBlox Daily Observations layout. Learn more.

Left ArrowRight Arrow

38.80484, -77.04692

Hourly Observations for February 17, 2016

Temp ( °F °C ) Dew Point ( °F °C ) Humidity (%) Winds ( mph kmh ) Pressure ( in mb ) Visibility ( mi km ) Precip ( " mm )
12:52 am 00:52 Mostly Cloudy 39 3.9 32 0 76 76 NNW 6 9 29.89 1012 10 16 0.00 0.00
1:52 am 01:52 Partly Cloudy 39 3.9 32 0 76 76 NNW 6 9 29.89 1012 10 16 0.00 0.00
2:52 am 02:52 Partly Cloudy 35 1.7 30 -1.1 82 82 WNW 3 6 29.91 1013 10 16 0.00 0.00
3:52 am 03:52 Mostly Cloudy 33 0.6 30 -1.1 89 89 W 3 6 29.92 1013 10 16 0.00 0.00
4:52 am 04:52 Mostly Cloudy 33 0.6 31 -0.6 92 92 Calm 29.94 1014 9 14 0.00 0.00
5:52 am 05:52 Cloudy 33 0.6 32 0 96 96 S 6 9 29.98 1015 10 16 0.00 0.00
6:52 am 06:52 Mostly Cloudy 35 1.7 31 -0.6 85 85 Calm 29.99 1016 10 16 0.00 0.00
7:52 am 07:52 Cloudy 34 1.1 31 -0.6 89 89 S 8 13 30.03 1017 10 16 0.00 0.00
8:52 am 08:52 Cloudy 36 2.2 32 0 86 86 Calm 30.06 1018 10 16 0.00 0.00
9:52 am 09:52 Cloudy 42 5.6 30 -1.1 62 62 NW 9 15 30.08 1019 10 16 0.00 0.00
10:52 am 10:52 Mostly Cloudy 43 6.1 29 -1.7 58 58 NW 16 26 30.09 1019 10 16 0.00 0.00
11:52 am 11:52 Mostly Cloudy 47 8.3 30 -1.1 52 52 NW 12 19 30.09 1019 10 16 0.00 0.00
12:52 pm 12:52 Cloudy 48 8.9 29 -1.7 48 48 WNW 14 22 30.08 1019 10 16 0.00 0.00
1:52 pm 13:52 Cloudy 46 7.8 28 -2.2 50 50 NW 14 22 30.09 1019 10 16 0.00 0.00
2:52 pm 14:52 Mostly Cloudy 46 7.8 28 -2.2 50 50 NNW 9 15 30.10 1019 10 16 0.00 0.00
3:52 pm 15:52 Mostly Cloudy 47 8.3 28 -2.2 48 48 NNW 12 19 30.11 1020 10 16 0.00 0.00
4:52 pm 16:52 Mostly Cloudy 46 7.8 27 -2.8 47 47 NNW 10 17 30.14 1021 10 16 0.00 0.00
5:52 pm 17:52 Partly Cloudy 43 6.1 27 -2.8 53 53 N 13 20 30.18 1022 10 16 0.00 0.00
6:52 pm 18:52 Mostly Clear 40 4.4 27 -2.8 60 60 NNW 8 13 30.22 1024 10 16 0.00 0.00
7:52 pm 19:52 Mostly Clear 39 3.9 26 -3.3 60 60 NNW 8 13 30.25 1024 10 16 0.00 0.00
8:52 pm 20:52 Mostly Clear 38 3.3 26 -3.3 62 62 NNE 5 7 30.27 1025 10 16 0.00 0.00
9:52 pm 21:52 Partly Cloudy 39 3.9 24 -4.4 55 55 NW 14 22 30.28 1026 10 16 0.00 0.00
10:52 pm 22:52 Clear 38 3.3 24 -4.4 57 57 W 6 9 30.29 1026 10 16 0.00 0.00
11:52 pm 23:52 Mostly Clear 37 2.8 23 -5 57 57 W 6 9 30.31 1026 10 16 0.00 0.00

Powered by AerisWeather